DW5656 Weather Reports


time (UTC)temp
C
wind
direction
speed
KPH
gust
KPH
rain 1hr
cm
rain 24hr
cm
rain mn
cm
humidity
%
barometer
mb
20260504181127 21 251 14.5 29.0 0.00 0.00 0.00 55 1013.2
20260504180227 21 256 12.9 29.0 0.00 0.00 0.00 55 1013.1
20260504175327 22 262 14.5 29.0 0.00 0.00 0.00 54 1013.2
20260504174448 22 257 14.5 27.4 0.00 0.00 0.00 53 1013.1
20260504173548 22 257 16.1 30.6 0.00 0.00 0.00 53 1013.1
20260504172627 22 248 16.1 37.0 0.00 0.00 0.00 54 1013.0
20260504171727 22 244 16.1 33.8 0.00 0.00 0.00 53 1013.1
20260504170827 22 257 14.5 32.2 0.00 0.00 0.00 52 1013.1
20260504151126 23 280 8.0 16.1 0.00 0.00 0.00 36 1013.4
20260504150226 23 244 8.0 25.7 0.00 0.00 0.00 38 1013.5
20260504140847 23 238 8.0 20.9 0.00 0.00 0.00 38 1013.9
20260504130526 22 271 4.8 22.5 0.00 0.00 0.00 41 1014.2
20260504120226 21 270 6.4 19.3 0.00 0.00 0.00 45 1014.9
20260504100526 20 238 3.2 17.7 0.00 0.00 0.00 53 1015.4
20260504081725 17 321 4.8 12.9 0.00 0.00 0.00 72 1015.4
20260504080825 17 345 4.8 14.5 0.00 0.00 0.00 72 1015.4
20260504060225 15 305 0.0 1.6 0.00 0.00 0.00 82 1014.6
20260504045925 15 0 0.0 0.0 0.00 0.00 0.00 81 1014.0
20260504045046 15 0 0.0 0.0 0.00 0.00 0.00 81 1013.9
20260504044125 15 0 0.0 0.0 0.00 0.00 0.00 82 1013.8
20260504043225 15 0 0.0 0.0 0.00 0.00 0.00 82 1013.8
20260504042324 15 0 0.0 0.0 0.00 0.00 0.00 82 1013.7
20260504041425 15 0 0.0 0.0 0.00 0.00 0.00 82 1013.6
20260504040524 15 0 0.0 0.0 0.00 0.00 0.00 82 1013.7
20260504035624 15 0 0.0 0.0 0.00 0.00 0.00 82 1013.6
20260504034726 15 0 0.0 0.0 0.00 0.00 0.00 82 1013.7
20260504033824 15 0 0.0 0.0 0.00 0.00 0.00 82 1013.8
20260504032924 15 0 0.0 0.0 0.00 0.00 0.00 82 1013.9
20260504032024 15 0 0.0 0.0 0.00 0.00 0.00 82 1013.9
20260504031145 15 0 0.0 0.0 0.00 0.00 0.00 82 1013.7
20260504030245 15 0 0.0 0.0 0.00 0.00 0.00 82 1013.8
20260504025324 15 0 0.0 0.0 0.00 0.00 0.00 82 1013.8
20260504024424 16 0 0.0 0.0 0.00 0.00 0.00 82 1013.7
20260504023545 16 0 0.0 0.0 0.00 0.00 0.00 82 1013.6
20260504022624 16 0 0.0 0.0 0.00 0.00 0.00 82 1013.6
20260504021724 16 0 0.0 0.0 0.00 0.00 0.00 82 1013.6
20260504020824 16 0 0.0 0.0 0.00 0.00 0.00 81 1013.6
20260504015945 16 0 0.0 0.0 0.00 0.00 0.00 81 1013.7
20260504015024 15 0 0.0 0.0 0.00 0.00 0.00 81 1013.7
20260504014125 16 0 0.0 0.0 0.00 0.00 0.00 81 1013.8
20260504013224 16 0 0.0 0.0 0.00 0.00 0.00 81 1013.8
20260504012324 16 0 0.0 0.0 0.00 0.00 0.00 80 1013.9
20260504011445 16 0 0.0 0.0 0.00 0.00 0.00 80 1013.8
20260504010525 16 0 0.0 0.0 0.00 0.00 0.00 80 1013.9
20260504005645 16 214 0.0 1.6 0.00 0.00 0.00 80 1014.0
20260504004724 16 232 0.0 6.4 0.00 0.00 0.00 79 1014.0
20260504003845 16 221 1.6 3.2 0.00 0.00 0.00 79 1014.0
20260504002924 16 200 1.6 8.0 0.00 0.00 0.00 79 1014.1
20260504002045 16 212 3.2 14.5 0.00 0.00 0.00 79 1014.3
20260504001124 17 221 4.8 9.7 0.00 0.00 0.00 80 1014.3
20260504000226 17 232 4.8 12.9 0.00 0.00 0.00 80 1014.4
20260503235324 17 229 4.8 12.9 0.00 0.00 0.00 79 1014.5
20260503234424 17 232 3.2 9.7 0.00 0.00 0.00 79 1014.5
20260503233524 17 252 3.2 9.7 0.00 0.00 0.00 79 1014.5
20260503232624 17 218 3.2 8.0 0.00 0.00 0.00 78 1014.6
20260503231745 17 218 3.2 8.0 0.00 0.00 0.00 78 1014.7
20260503230845 17 226 3.2 9.7 0.00 0.00 0.00 78 1014.7
20260503225924 17 227 4.8 11.3 0.00 0.00 0.00 77 1014.7
20260503225024 17 218 3.2 11.3 0.00 0.00 0.00 77 1014.8
20260503224125 17 213 3.2 9.7 0.00 0.00 0.00 76 1014.9
20260503223223 17 217 3.2 14.5 0.00 0.00 0.00 76 1014.8
20260503222323 17 224 3.2 9.7 0.00 0.00 0.00 76 1014.8
20260503221423 17 226 3.2 11.3 0.00 0.00 0.00 76 1014.7
20260503220545 17 238 4.8 16.1 0.00 0.00 0.00 76 1014.8
20260503215623 17 237 3.2 12.9 0.00 0.00 0.00 75 1014.8
20260503214723 17 233 3.2 9.7 0.00 0.00 0.00 74 1014.8
20260503213844 17 228 3.2 9.7 0.00 0.00 0.00 74 1014.7
20260503212944 17 225 3.2 9.7 0.00 0.00 0.00 74 1014.7
20260503212023 17 245 3.2 11.3 0.00 0.00 0.00 73 1014.7
20260503211123 17 247 4.8 11.3 0.00 0.00 0.00 73 1014.7
20260503210224 17 256 6.4 9.7 0.00 0.00 0.00 73 1014.6
20260503205323 17 265 6.4 17.7 0.00 0.00 0.00 73 1014.5
20260503204424 17 247 6.4 12.9 0.00 0.00 0.00 72 1014.4
20260503203544 17 245 6.4 14.5 0.00 0.00 0.00 72 1014.3
20260503202644 17 266 6.4 14.5 0.00 0.00 0.00 72 1014.2
20260503201723 17 261 9.7 17.7 0.00 0.00 0.00 71 1014.1
20260503200823 18 267 9.7 24.1 0.00 0.00 0.00 71 1013.9
20260503195923 18 268 11.3 24.1 0.00 0.00 0.00 70 1013.7
20260503195023 18 266 9.7 24.1 0.00 0.00 0.00 69 1013.6
20260503194124 18 259 12.9 24.1 0.00 0.00 0.00 68 1013.4
20260503193223 18 264 11.3 22.5 0.00 0.00 0.00 67 1013.4
20260503192323 18 261 11.3 22.5 0.00 0.00 0.00 66 1013.4
20260503191423 18 268 9.7 24.1 0.00 0.00 0.00 65 1013.3
20260503190523 19 269 11.3 17.7 0.00 0.00 0.00 63 1013.3
20260503185623 19 262 12.9 24.1 0.00 0.00 0.00 63 1013.2
20260503184744 20 249 14.5 29.0 0.00 0.00 0.00 62 1013.2
20260503183823 20 243 12.9 27.4 0.00 0.00 0.00 60 1013.2
20260503182944 20 248 14.5 30.6 0.00 0.00 0.00 57 1013.1
20260503182023 20 246 14.5 25.7 0.00 0.00 0.00 58 1013.1